Temp
0 1 1 1 1 -1 -2 -2 -3 -2 -2 -2 -2 -2 -2 -3 -3 -3 -2 -2 -2 -2 -3 -3 -3 -3 -3 -3 -3 -3 -3 -4 -4 -4 -3 -2 -3 -3 -4 -2 -2 -3 -4 -4 -4 -4 -4 -1 -1 -3 -5 -3 -3 -3
1 1 1 1 -0 -2 -3 -2 -1 -1 -1 -2 -2 -2 -2 -2 -2 -2 -2 -2 -3 -3 -3 -3 -3 -4 -3 -3 -3 -3 -3 -2 -2 -3 -4 -4 -3 -4 -2 -4 -1 -4 -2 -4 -2 -3 -2 -4 -4 -5 -5 -4 -4 -5
1 1 1 1 0 -1 -2 -1 -1 -1 -1 -1 -2 -2 -2 -2 -2 -2 -2 -2 -3 -4 -4 -3 -3 -4 -3 -4 -4 -3 -2 -3 -4 -3 -3 -3 -4 -3 -4 -3 -3 -1 -2 -6 -4 -2 -4 -4 -6 -6 -6 -5 -6 -6
1 1 1 1 1 0 -0 -1 -1 -1 -1 -1 -2 -2 -2 -2 -2 -2 -3 -3 -3 -4 -4 -3 -3 -3 -4 -4 -4 -4 -4 -4 -4 -4 -4 -4 -4 -2 -4 -3 -4 -2 -4 -5 -5 -4 -5 -5 -6 -6 -6 -7 -7 -7
1 1 1 1 1 1 1 -0 -1 -1 -1 -2 -2 -2 -2 -2 -2 -3 -3 -3 -4 -4 -4 -3 -4 -5 -4 -4 -4 -5 -5 -5 -4 -4 -5 -5 -3 -4 -4 -5 -5 -3 -4 -4 -4 -6 -6 -7 -7 -7 -7 -8 -8 -8
1 1 1 1 1 1 1 1 0 -1 -1 -1 -2 -2 -2 -2 -3 -3 -3 -4 -4 -5 -5 -4 -5 -5 -5 -5 -6 -6 -6 -6 -5 -4 -4 -4 -4 -4 -6 -5 -5 -5 -6 -6 -6 -7 -7 -7 -8 -8 -9 -9 -9 -9
1 1 1 1 1 1 1 1 -0 -1 -0 -1 -1 -2 -2 -3 -3 -3 -4 -5 -4 -4 -5 -5 -4 -5 -5 -5 -6 -6 -6 -6 -6 -5 -5 -5 -5 -5 -7 -6 -6 -6 -6 -7 -7 -7 -8 -8 -8 -8 -9 -10 -9 -9
2 1 1 1 1 1 1 1 -0 -1 -1 -0 -1 -2 -3 -3 -3 -4 -4 -5 -5 -5 -4 -6 -5 -5 -5 -5 -5 -6 -6 -6 -6 -6 -6 -7 -6 -6 -8 -5 -5 -6 -7 -7 -7 -8 -8 -8 -9 -9 -9 -9 -9 -9
2 1 1 1 1 1 0 -0 -1 -1 -1 -2 -2 -3 -3 -3 -5 -5 -5 -5 -5 -5 -4 -5 -5 -5 -6 -6 -6 -6 -7 -7 -6 -7 -8 -8 -7 -7 -7 -7 -7 -7 -7 -7 -7 -8 -8 -9 -9 -9 -9 -10 -10 -10
1 1 1 1 0 0 -0 -1 -1 -1 -1 -2 -3 -2 -5 -5 -5 -5 -5 -5 -4 -5 -5 -5 -6 -5 -6 -6 -6 -7 -6 -8 -7 -9 -8 -9 -7 -5 -6 -7 -7 -8 -8 -8 -8 -8 -9 -9 -9 -9 -9 -9 -9 -9
1 1 1 1 -1 -1 -1 -2 -2 -2 -2 -2 -2 -3 -3 -4 -4 -4 -5 -6 -6 -6 -6 -7 -7 -8 -8 -8 -8 -8 -8 -9 -7 -8 -9 -7 -8 -7 -7 -8 -8 -8 -8 -8 -8 -9 -8 -8 -9 -9 -9 -9 -9 -9
0 1 0 0 -2 -2 -3 -3 -2 -2 -2 -3 -3 -3 -4 -4 -4 -7 -10 -7 -8 -8 -6 -7 -7 -8 -8 -8 -8 -8 -8 -8 -7 -8 -9 -7 -7 -7 -7 -7 -8 -8 -8 -8 -8 -8 -9 -8 -8 -8 -8 -9 -9 -9
-1 -1 -1 -1 -2 -2 -2 -2 -2 -3 -3 -3 -3 -3 -4 -4 -7 -7 -8 -7 -8 -5 -6 -7 -8 -8 -8 -8 -8 -9 -8 -8 -7 -9 -7 -8 -7 -7 -7 -7 -7 -8 -8 -8 -8 -8 -8 -8 -8 -8 -8 -8 -9 -9
-3 -3 -3 -3 -3 -4 -3 -3 -3 -2 -2 -3 -3 -6 -8 -7 -6 -6 -7 -7 -5 -6 -7 -7 -7 -8 -9 -9 -10 -9 -9 -9 -8 -7 -5 -8 -7 -7 -7 -8 -8 -8 -8 -8 -8 -8 -8 -8 -8 -8 -8 -9 -9 -9
-4 -4 -3 -4 -4 -5 -4 -4 -3 -3 -3 -3 -3 -6 -7 -4 -4 -5 -5 -6 -6 -7 -8 -7 -8 -9 -10 -12 -11 -11 -10 -9 -6 -6 -7 -7 -7 -7 -8 -8 -8 -8 -8 -8 -8 -8 -8 -9 -9 -9 -9 -9 -9 -10
-4 -4 -3 -4 -3 -4 -3 -3 -2 -2 -3 -3 -4 -6 -4 -6 -5 -5 -6 -6 -7 -8 -9 -8 -10 -11 -12 -14 -12 -12 -10 -9 -6 -6 -7 -8 -8 -8 -8 -8 -8 -9 -9 -9 -9 -9 -9 -9 -9 -9 -9 -9 -10 -10
-3 -4 -4 -4 -4 -3 -3 -2 -3 -3 -3 -4 -5 -4 -5 -5 -6 -6 -7 -7 -7 -8 -8 -10 -12 -11 -14 -14 -12 -10 -11 -10 -7 -7 -8 -8 -9 -8 -9 -9 -9 -10 -10 -10 -9 -9 -10 -10 -10 -10 -10 -10 -10 -10
-4 -3 -4 -4 -4 -4 -3 -3 -3 -3 -4 -4 -5 -6 -6 -6 -6 -7 -7 -7 -8 -8 -8 -11 -10 -13 -13 -11 -10 -10 -7 -8 -8 -8 -9 -9 -9 -9 -10 -11 -11 -11 -11 -11 -10 -11 -11 -11 -10 -11 -11 -11 -11 -10
-3 -3 -3 -4 -5 -5 -4 -3 -3 -4 -4 -5 -6 -7 -7 -8 -8 -8 -8 -8 -9 -9 -9 -10 -12 -14 -11 -8 -8 -8 -9 -10 -10 -10 -10 -10 -11 -11 -11 -12 -12 -13 -13 -13 -12 -12 -12 -11 -11 -12 -12 -11 -11 -10
-4 -3 -3 -4 -5 -5 -4 -4 -4 -4 -6 -7 -8 -8 -8 -9 -9 -9 -10 -10 -10 -9 -10 -13 -12 -7 -7 -8 -9 -9 -10 -11 -11 -12 -11 -12 -12 -13 -13 -14 -14 -14 -13 -13 -13 -13 -12 -12 -12 -12 -12 -11 -11 -10
-4 -3 -4 -5 -5 -4 -4 -4 -5 -6 -7 -8 -9 -9 -10 -11 -11 -12 -11 -11 -10 -9 -10 -8 -8 -8 -8 -9 -9 -10 -10 -11 -11 -13 -13 -14 -14 -14 -14 -14 -14 -14 -14 -14 -14 -13 -13 -13 -13 -12 -12 -11 -11 -11
-4 -5 -5 -5 -5 -5 -5 -6 -7 -7 -8 -9 -10 -10 -11 -11 -11 -12 -12 -12 -11 -9 -9 -8 -8 -8 -8 -9 -9 -10 -10 -11 -12 -12 -13 -14 -14 -14 -13 -14 -14 -14 -14 -14 -14 -14 -13 -13 -12 -12 -12 -11 -11 -11
-5 -5 -5 -5 -6 -5 -7 -8 -8 -8 -13 -10 -11 -12 -13 -12 -12 -13 -14 -12 -10 -9 -9 -9 -9 -9 -9 -9 -10 -11 -11 -12 -12 -13 -13 -13 -14 -14 -14 -14 -14 -14 -14 -13 -14 -13 -13 -12 -12 -12 -12 -11 -11 -11
-5 -5 -5 -6 -6 -8 -8 -9 -10 -11 -12 -13 -15 -14 -14 -12 -13 -14 -17 -10 -10 -9 -10 -10 -10 -9 -9 -10 -11 -12 -12 -13 -13 -13 -13 -13 -13 -14 -14 -14 -14 -14 -14 -13 -13 -13 -12 -12 -12 -12 -11 -11 -11 -11
-6 -6 -6 -8 -8 -10 -14 -14 -14 -14 -14 -14 -14 -15 -16 -13 -16 -16 -15 -9 -11 -10 -10 -10 -10 -10 -10 -11 -11 -12 -13 -13 -13 -13 -13 -13 -14 -14 -14 -14 -14 -14 -14 -13 -13 -12 -12 -12 -12 -12 -12 -12 -12 -12
-7 -5 -9 -7 -10 -11 -11 -13 -14 -13 -13 -14 -14 -13 -13 -17 -16 -13 -13 -10 -10 -10 -10 -10 -10 -10 -11 -12 -12 -13 -13 -13 -13 -13 -13 -13 -14 -14 -14 -13 -13 -13 -13 -13 -13 -12 -12 -12 -12 -12 -12 -12 -12 -13
-9 -10 -7 -8 -8 -9 -11 -10 -10 -12 -14 -13 -15 -16 -16 -14 -14 -11 -9 -10 -10 -10 -10 -10 -10 -11 -12 -12 -13 -13 -13 -13 -13 -13 -13 -13 -13 -14 -14 -14 -13 -13 -12 -12 -12 -12 -12 -12 -12 -12 -12 -12 -12 -13
-6 -7 -11 -9 -10 -10 -14 -14 -15 -13 -13 -9 -11 -14 -11 -12 -11 -10 -10 -10 -10 -10 -11 -11 -11 -12 -12 -12 -12 -13 -13 -13 -13 -13 -13 -13 -13 -14 -14 -14 -14 -14 -13 -13 -12 -12 -12 -12 -12 -12 -12 -12 -12 -13
-8 -8 -9 -13 -11 -12 -11 -12 -11 -7 -8 -9 -12 -11 -10 -9 -10 -10 -10 -10 -11 -11 -11 -12 -12 -12 -13 -13 -13 -13 -13 -13 -13 -13 -13 -14 -14 -14 -15 -15 -14 -14 -13 -13 -13 -13 -13 -12 -12 -12 -13 -13 -13 -13
-8 -9 -10 -12 -16 -13 -9 -8 -9 -9 -10 -9 -10 -10 -11 -11 -11 -11 -11 -12 -12 -12 -13 -13 -13 -13 -13 -14 -14 -14 -14 -14 -14 -14 -14 -14 -15 -15 -14 -14 -14 -13 -13 -13 -14 -14 -14 -14 -14 -14 -14 -14 -14 -15
-10 -11 -11 -11 -13 -11 -10 -10 -11 -11 -11 -11 -11 -12 -12 -12 -12 -12 -13 -14 -14 -14 -14 -14 -14 -14 -14 -14 -14 -14 -14 -15 -15 -15 -15 -15 -15 -15 -14 -14 -14 -14 -14 -14 -15 -15 -15 -15 -15 -15 -15 -15 -15 -16
-12 -13 -13 -17 -13 -12 -12 -12 -13 -13 -14 -14 -14 -14 -14 -14 -14 -15 -16 -16 -15 -15 -14 -14 -14 -14 -14 -14 -14 -15 -15 -15 -15 -15 -15 -15 -16 -15 -15 -15 -15 -15 -15 -15 -16 -16 -16 -16 -16 -16 -16 -16 -16 -17
-14 -13 -13 -12 -13 -14 -14 -14 -14 -14 -15 -15 -16 -16 -16 -15 -15 -16 -16 -16 -16 -15 -15 -15 -15 -15 -15 -15 -15 -15 -15 -15 -15 -15 -15 -15 -15 -15 -16 -15 -15 -16 -16 -16 -16 -16 -17 -17 -17 -17 -17 -17 -17 -17
Height
1524 1517 1510 1504 1499 1493 1487 1482 1476 1473 1468 1464 1460 1456 1454 1451 1450 1449 1444 1443 1440 1438 1436 1434 1433 1432 1431 1433 1433 1434 1435 1434 1436 1436 1431 1428 1429 1426 1429 1423 1422 1426 1433 1434 1434 1436 1437 1422 1421 1429 1432 1430 1431 1432
1517 1511 1505 1498 1492 1487 1481 1477 1471 1466 1461 1458 1454 1451 1448 1447 1444 1442 1440 1438 1437 1440 1437 1434 1433 1433 1432 1431 1433 1433 1433 1432 1433 1434 1432 1431 1429 1430 1425 1431 1421 1432 1427 1432 1426 1427 1425 1425 1426 1428 1429 1429 1431 1432
1512 1506 1500 1494 1487 1481 1475 1470 1464 1459 1455 1451 1449 1447 1445 1443 1441 1440 1438 1437 1438 1437 1435 1433 1432 1433 1432 1432 1433 1434 1431 1430 1431 1433 1433 1432 1433 1428 1431 1428 1426 1423 1423 1431 1429 1422 1423 1425 1428 1429 1429 1430 1431 1431
1508 1502 1497 1491 1484 1477 1470 1464 1458 1453 1450 1446 1445 1443 1442 1440 1439 1438 1437 1438 1438 1439 1437 1435 1433 1433 1432 1431 1431 1431 1431 1430 1432 1432 1432 1431 1430 1426 1427 1426 1428 1425 1426 1427 1426 1421 1423 1426 1428 1428 1429 1429 1430 1430
1505 1499 1493 1487 1480 1474 1468 1461 1454 1449 1446 1443 1441 1440 1439 1439 1438 1438 1438 1437 1438 1442 1439 1435 1434 1433 1432 1431 1430 1429 1429 1429 1430 1430 1430 1429 1426 1427 1424 1424 1425 1422 1424 1426 1424 1426 1426 1428 1428 1428 1428 1428 1429 1429
1501 1495 1489 1484 1478 1470 1465 1460 1453 1449 1445 1442 1440 1439 1437 1437 1438 1439 1438 1439 1438 1438 1438 1436 1436 1434 1433 1431 1430 1429 1428 1429 1429 1428 1427 1427 1427 1429 1430 1426 1426 1425 1426 1426 1427 1427 1427 1427 1427 1427 1428 1428 1428 1429
1497 1491 1485 1480 1476 1469 1463 1459 1454 1450 1446 1443 1441 1440 1439 1439 1440 1440 1443 1442 1440 1439 1439 1437 1435 1435 1434 1432 1431 1431 1430 1430 1430 1429 1429 1429 1429 1429 1429 1429 1428 1427 1427 1426 1426 1426 1427 1427 1426 1427 1427 1427 1428 1429
1494 1488 1483 1477 1472 1467 1463 1459 1455 1451 1447 1444 1442 1441 1441 1442 1441 1441 1441 1441 1440 1440 1440 1441 1438 1437 1436 1435 1433 1433 1432 1432 1432 1432 1431 1432 1431 1431 1433 1428 1428 1427 1427 1426 1426 1425 1425 1426 1426 1426 1427 1427 1428 1429
1490 1485 1479 1474 1469 1464 1461 1459 1455 1452 1448 1446 1444 1443 1444 1443 1443 1444 1442 1441 1441 1445 1442 1443 1443 1440 1438 1436 1435 1435 1434 1433 1434 1433 1434 1435 1432 1434 1431 1429 1428 1427 1426 1426 1425 1425 1425 1426 1426 1426 1427 1428 1428 1429
1486 1482 1477 1472 1468 1463 1460 1459 1456 1453 1450 1448 1447 1446 1445 1446 1445 1445 1445 1445 1444 1444 1444 1446 1447 1443 1444 1438 1436 1437 1436 1437 1434 1438 1436 1436 1432 1430 1430 1428 1426 1424 1424 1424 1425 1425 1425 1425 1426 1426 1426 1428 1428 1429
1485 1480 1475 1471 1468 1464 1460 1459 1456 1454 1453 1451 1449 1448 1448 1447 1447 1446 1447 1448 1448 1448 1448 1448 1448 1447 1445 1444 1442 1440 1439 1438 1438 1440 1439 1434 1435 1431 1430 1428 1426 1425 1424 1424 1424 1424 1425 1425 1425 1425 1426 1427 1428 1429
1485 1480 1474 1469 1467 1466 1463 1459 1457 1456 1456 1455 1454 1451 1449 1449 1449 1450 1454 1451 1452 1454 1450 1449 1448 1447 1445 1444 1443 1441 1441 1440 1438 1439 1440 1435 1432 1431 1430 1428 1426 1424 1423 1422 1422 1422 1423 1423 1423 1423 1424 1425 1426 1427
1485 1482 1478 1472 1470 1469 1466 1462 1460 1458 1457 1455 1455 1454 1453 1453 1456 1458 1464 1458 1456 1452 1451 1450 1449 1448 1446 1445 1444 1443 1442 1441 1439 1441 1434 1433 1431 1431 1430 1428 1426 1424 1423 1421 1421 1421 1421 1421 1421 1421 1421 1422 1423 1424
1484 1483 1479 1475 1473 1471 1469 1466 1462 1460 1457 1457 1457 1458 1459 1459 1457 1456 1456 1455 1453 1451 1450 1449 1448 1448 1446 1445 1445 1446 1443 1442 1440 1436 1428 1431 1430 1430 1429 1428 1426 1424 1423 1421 1420 1419 1418 1418 1417 1417 1418 1419 1420 1421
1484 1481 1479 1476 1474 1472 1469 1466 1463 1460 1458 1458 1458 1461 1459 1456 1455 1454 1453 1453 1451 1450 1449 1448 1448 1448 1447 1448 1447 1447 1448 1445 1434 1432 1431 1431 1431 1430 1429 1427 1425 1423 1421 1419 1418 1416 1415 1414 1414 1414 1415 1416 1417 1418
1481 1478 1477 1475 1473 1472 1469 1466 1462 1459 1457 1457 1455 1455 1454 1455 1452 1452 1451 1452 1450 1449 1449 1449 1449 1450 1451 1452 1453 1451 1447 1442 1433 1432 1432 1431 1430 1428 1427 1425 1422 1420 1418 1416 1414 1413 1411 1410 1409 1410 1411 1411 1413 1414
1480 1477 1475 1474 1472 1470 1467 1464 1460 1457 1455 1454 1452 1451 1452 1452 1451 1450 1450 1450 1449 1449 1449 1449 1454 1451 1451 1455 1451 1441 1444 1437 1433 1432 1431 1430 1428 1425 1423 1421 1418 1416 1414 1412 1410 1408 1406 1405 1404 1404 1405 1407 1409 1411
1476 1474 1473 1472 1470 1467 1463 1461 1459 1455 1452 1450 1450 1449 1449 1449 1448 1448 1447 1447 1448 1448 1448 1449 1448 1451 1453 1449 1441 1435 1434 1433 1432 1430 1428 1426 1424 1422 1419 1415 1413 1411 1408 1406 1404 1401 1400 1399 1398 1398 1400 1402 1404 1406
1474 1472 1470 1470 1470 1468 1465 1460 1457 1452 1448 1447 1446 1446 1445 1445 1444 1444 1444 1445 1446 1447 1447 1446 1447 1448 1439 1433 1433 1433 1432 1431 1428 1424 1422 1421 1419 1416 1413 1411 1408 1405 1402 1399 1397 1396 1395 1394 1393 1393 1395 1398 1400 1403
1472 1469 1467 1467 1468 1467 1463 1458 1455 1450 1447 1445 1443 1443 1443 1442 1441 1441 1442 1443 1444 1445 1444 1442 1435 1430 1431 1431 1431 1430 1429 1427 1424 1419 1416 1416 1413 1410 1407 1405 1402 1399 1396 1395 1393 1392 1391 1390 1389 1389 1391 1395 1397 1399
1467 1465 1464 1464 1464 1464 1460 1454 1450 1447 1445 1443 1441 1441 1440 1439 1438 1439 1441 1441 1442 1438 1433 1428 1427 1427 1428 1428 1427 1426 1425 1423 1420 1417 1413 1408 1407 1405 1402 1399 1397 1395 1393 1392 1391 1390 1389 1388 1387 1388 1390 1392 1395 1396
1463 1461 1460 1460 1460 1457 1452 1449 1447 1446 1445 1441 1440 1439 1438 1438 1437 1437 1437 1438 1432 1426 1425 1424 1424 1424 1425 1424 1423 1422 1420 1418 1415 1412 1409 1405 1402 1400 1398 1397 1394 1393 1391 1390 1389 1388 1387 1387 1386 1387 1389 1391 1392 1394
1461 1459 1458 1456 1455 1451 1447 1446 1445 1442 1442 1439 1438 1438 1436 1435 1435 1435 1434 1429 1422 1419 1419 1421 1422 1421 1421 1421 1420 1418 1416 1413 1410 1407 1404 1402 1400 1399 1397 1396 1394 1392 1390 1389 1388 1387 1386 1385 1385 1386 1387 1388 1390 1391
1458 1458 1453 1450 1449 1445 1444 1442 1441 1440 1439 1438 1438 1437 1434 1433 1433 1433 1431 1419 1415 1414 1416 1417 1418 1419 1419 1417 1415 1414 1412 1410 1407 1404 1401 1399 1398 1397 1396 1394 1393 1391 1389 1387 1385 1385 1384 1384 1384 1385 1386 1387 1388 1389
1457 1451 1449 1443 1442 1443 1441 1439 1438 1439 1438 1434 1436 1434 1431 1432 1433 1431 1424 1413 1412 1413 1414 1415 1416 1416 1414 1413 1413 1411 1409 1407 1404 1401 1400 1398 1397 1396 1395 1393 1392 1391 1389 1387 1385 1384 1383 1383 1383 1383 1384 1384 1385 1385
1450 1440 1438 1433 1433 1435 1431 1435 1435 1433 1431 1432 1430 1429 1430 1431 1434 1424 1413 1409 1409 1410 1412 1413 1413 1413 1412 1410 1409 1408 1406 1404 1401 1399 1398 1397 1396 1395 1394 1393 1391 1390 1388 1386 1384 1383 1382 1381 1381 1381 1381 1382 1382 1382
1440 1431 1427 1426 1427 1427 1427 1426 1426 1427 1429 1427 1424 1428 1430 1433 1425 1410 1407 1407 1408 1409 1410 1410 1410 1409 1408 1407 1406 1405 1403 1401 1399 1398 1397 1396 1395 1394 1394 1392 1390 1389 1387 1385 1383 1381 1380 1379 1379 1378 1378 1378 1379 1379
1423 1422 1423 1422 1422 1423 1423 1423 1424 1422 1415 1414 1417 1422 1418 1415 1408 1405 1405 1405 1406 1407 1408 1407 1407 1406 1405 1403 1402 1402 1401 1399 1398 1396 1396 1395 1394 1393 1392 1391 1389 1387 1385 1382 1380 1379 1378 1377 1375 1375 1374 1374 1374 1374
1415 1415 1418 1419 1420 1419 1415 1413 1409 1405 1404 1405 1407 1406 1404 1402 1402 1402 1403 1404 1404 1405 1405 1404 1403 1402 1401 1400 1400 1399 1399 1398 1397 1396 1395 1394 1394 1393 1391 1389 1387 1385 1382 1380 1378 1376 1375 1374 1373 1372 1372 1371 1371 1371
1410 1412 1413 1413 1414 1409 1402 1403 1401 1400 1401 1402 1402 1401 1400 1400 1400 1401 1401 1401 1401 1401 1401 1400 1400 1399 1398 1398 1398 1398 1398 1397 1396 1396 1395 1394 1393 1392 1389 1387 1385 1383 1380 1378 1376 1375 1374 1373 1372 1371 1370 1369 1369 1369
1406 1407 1408 1406 1402 1399 1398 1398 1398 1398 1398 1398 1398 1398 1397 1397 1397 1397 1397 1397 1398 1398 1398 1398 1397 1396 1396 1397 1397 1397 1398 1397 1396 1395 1395 1394 1393 1391 1388 1385 1382 1380 1378 1376 1375 1374 1373 1372 1371 1370 1369 1369 1368 1368
1402 1402 1403 1402 1397 1396 1396 1396 1396 1395 1394 1394 1394 1394 1394 1395 1395 1395 1394 1395 1396 1396 1396 1396 1396 1395 1395 1396 1396 1397 1397 1396 1396 1395 1395 1394 1393 1391 1388 1385 1382 1380 1378 1376 1374 1373 1372 1371 1370 1370 1369 1369 1368 1368
1399 1399 1398 1397 1395 1394 1394 1394 1394 1393 1393 1392 1392 1392 1392 1393 1393 1394 1394 1394 1395 1395 1395 1395 1395 1395 1396 1396 1396 1396 1396 1395 1394 1393 1393 1392 1392 1390 1388 1385 1382 1380 1378 1376 1375 1374 1373 1371 1371 1370 1369 1369 1368 1367
Wind_Speed
40 40 38 38 40 38 37 37 35 34 33 32 31 28 26 25 23 20 24 22 14 4 14 10 12 3 1 2 1 1 1 1 3 2 1 2 2 1 2 2 1 2 2 3 2 1 4 7 2 4 4 5 4 4
36 34 37 40 39 37 35 34 35 35 34 32 30 28 25 23 22 17 19 16 2 6 11 18 16 17 14 9 7 2 3 2 2 1 2 2 2 0 1 2 2 2 1 1 2 1 3 6 7 4 2 3 2 2
33 36 37 36 37 37 37 35 35 35 33 29 27 24 23 21 20 16 14 7 8 5 9 5 3 7 6 7 8 4 3 4 3 3 3 1 2 0 1 1 2 2 6 0 5 4 4 6 5 4 5 4 1 2
33 34 35 35 37 38 37 34 35 32 28 24 22 21 19 18 16 11 5 6 8 4 3 2 3 5 7 7 6 10 17 11 6 4 4 2 2 4 1 1 2 1 3 3 4 3 10 5 4 2 1 2 1 2
33 32 33 33 35 37 36 33 33 25 20 18 18 14 14 16 8 5 3 5 2 3 3 4 7 6 9 7 5 5 8 6 3 3 2 2 2 0 2 1 2 2 0 1 1 4 3 5 3 2 2 0 1 3
32 31 30 31 33 33 32 30 24 18 16 15 13 11 10 7 3 3 2 4 8 5 2 2 3 5 8 8 6 6 3 0 3 3 1 1 2 1 1 1 2 3 2 1 1 1 1 1 2 1 3 3 3 4
31 30 28 29 30 29 27 24 19 15 14 13 10 9 6 6 3 4 3 4 9 4 2 3 0 3 9 8 6 7 8 4 2 3 2 4 2 4 1 1 2 2 1 1 1 1 2 1 1 1 3 5 6 5
28 28 28 27 26 24 24 21 17 12 12 10 8 6 6 4 4 5 6 4 5 1 2 2 3 1 10 4 4 6 4 3 5 3 1 3 2 2 1 5 6 5 3 3 4 3 2 3 2 3 4 6 7 7
25 26 27 25 23 21 19 15 13 12 11 7 8 7 2 3 5 6 6 7 5 3 3 3 3 3 9 3 3 2 4 1 2 1 2 3 1 1 1 7 10 7 4 2 3 3 2 2 3 4 5 7 8 8
25 25 26 23 20 17 14 11 11 11 8 7 6 3 4 4 5 5 4 4 4 4 4 3 5 2 8 6 1 5 2 1 1 1 3 0 2 4 8 9 9 6 4 6 4 4 4 6 7 6 6 6 7 8
25 24 22 20 15 14 10 8 10 8 8 6 6 5 5 5 4 3 3 4 5 2 4 3 2 3 6 2 2 4 2 1 2 1 1 1 2 2 10 10 9 6 5 6 8 8 8 7 6 8 8 8 9 9
23 21 18 15 12 7 6 8 9 11 8 8 7 4 4 4 2 4 1 2 3 1 3 4 4 3 4 3 3 3 1 1 1 2 1 2 1 4 9 12 12 9 7 6 7 8 8 7 7 7 9 9 10 10
18 16 14 14 9 7 8 7 7 8 12 6 4 4 4 3 6 4 4 4 3 3 3 5 2 3 3 3 2 1 1 0 2 0 2 1 3 3 8 11 11 12 11 7 5 5 8 8 9 9 11 11 12 12
15 14 14 11 10 9 6 5 5 11 6 3 4 5 3 3 0 1 1 1 2 2 7 6 4 2 2 1 1 1 0 1 1 1 1 1 1 5 9 10 12 13 13 12 10 9 11 11 11 11 12 13 13 13
13 14 14 12 11 9 8 5 7 11 3 2 2 1 1 2 4 5 4 4 4 5 3 4 2 1 1 2 1 2 3 3 2 1 0 1 5 7 9 13 15 15 14 13 13 13 12 13 14 14 13 14 14 14
13 12 10 12 11 12 11 12 13 9 2 2 2 0 3 2 3 2 2 3 5 3 3 1 1 2 2 1 2 4 1 3 1 2 4 6 7 9 14 17 17 16 15 16 17 16 15 14 16 16 15 17 16 15
12 10 13 13 15 17 16 15 6 3 3 3 4 6 6 6 5 2 1 3 3 1 2 1 2 5 1 2 3 2 3 2 6 9 9 9 14 17 22 23 21 18 19 20 20 20 18 17 16 18 19 17 16 15
13 12 14 16 18 21 14 4 4 3 4 6 3 4 5 7 6 5 4 4 3 1 1 3 2 1 3 3 3 1 2 9 12 12 15 18 22 25 23 21 17 21 24 24 21 20 19 18 18 18 17 16 16 16
17 17 16 15 15 16 5 4 4 3 5 5 6 9 7 6 8 8 7 5 6 4 2 2 1 3 3 2 2 5 10 13 19 21 23 22 19 17 18 23 25 24 22 21 19 16 15 16 16 14 15 16 16 14
17 17 16 11 9 5 5 5 4 5 4 3 4 4 4 5 5 4 4 4 5 3 4 3 4 3 3 4 7 12 15 15 19 23 22 18 20 25 23 23 22 20 17 14 13 12 13 14 12 12 14 13 15 14
23 18 13 11 11 9 6 5 5 4 5 4 4 4 4 5 3 2 5 9 7 5 5 9 9 9 8 8 12 13 16 20 20 20 24 26 24 23 22 17 15 14 12 12 13 12 11 13 8 9 13 13 13 12
21 14 12 11 6 6 8 8 4 3 4 4 3 3 3 2 3 3 4 7 6 7 8 7 8 7 8 9 12 17 19 19 19 19 17 16 18 16 14 13 15 13 12 11 11 12 11 9 6 7 11 13 12 11
10 6 5 6 6 5 4 5 4 3 1 1 2 1 3 3 3 3 4 7 7 10 14 14 11 9 8 11 15 16 16 17 17 15 13 11 11 11 12 14 13 13 13 9 9 10 9 6 6 7 9 11 12 12
10 5 5 5 8 3 3 3 4 3 2 2 1 3 2 3 2 2 3 5 7 6 9 10 9 7 9 13 14 14 14 14 13 12 12 12 9 9 12 11 9 10 10 10 9 8 7 5 7 9 9 11 12 13
4 6 5 6 6 3 2 2 2 1 3 3 2 3 2 3 0 3 3 4 7 9 9 7 6 8 13 13 11 13 14 13 13 13 9 7 9 11 9 7 7 7 9 10 8 6 6 5 7 9 10 12 12 12
6 8 10 8 6 6 5 3 5 6 3 3 5 2 3 2 1 6 3 5 8 10 9 7 7 11 12 13 14 13 12 12 12 12 9 9 10 9 9 11 10 9 10 11 10 8 7 7 7 9 11 11 12 13
5 7 11 9 4 3 1 3 2 2 4 6 3 3 3 2 5 4 4 7 8 8 7 7 10 13 13 12 12 11 10 10 10 10 8 8 6 3 8 13 15 15 13 11 11 11 11 10 10 10 10 12 12 13
13 5 5 8 8 8 3 2 5 6 4 7 11 4 6 7 4 4 6 7 9 7 7 10 12 12 12 11 10 8 7 6 7 7 6 6 6 6 7 12 15 18 18 16 14 12 12 12 11 11 11 10 11 12
7 6 9 4 5 6 9 7 6 7 6 12 5 4 4 4 4 5 6 7 8 8 10 12 11 10 10 8 6 5 5 4 6 7 7 6 6 8 11 12 14 17 16 13 12 11 11 10 10 10 10 11 10 10
6 12 7 6 5 6 7 13 5 7 9 10 5 3 4 5 6 7 8 9 10 9 10 9 8 7 4 2 2 2 3 4 8 10 10 10 12 13 12 14 15 15 14 12 10 7 6 7 9 10 9 8 7 6
4 12 5 7 6 5 9 10 10 9 8 8 12 10 6 4 5 9 12 11 9 7 6 6 5 1 1 1 2 2 3 5 6 7 7 9 13 18 18 17 15 14 12 10 9 7 6 9 9 8 6 5 4 3
8 10 5 3 4 4 5 4 4 4 3 4 4 6 4 4 3 3 3 5 4 4 3 2 0 1 2 2 3 3 4 5 5 5 4 8 15 16 18 17 16 14 11 9 8 7 7 7 6 5 4 4 4 4
5 6 5 4 3 3 4 4 2 2 3 2 2 3 5 4 2 3 3 4 3 1 1 1 1 3 4 3 3 4 5 6 6 6 6 12 11 13 15 16 15 13 10 8 7 7 7 6 6 6 6 5 5 5
Wind_Direction
321 324 328 330 329 326 323 323 325 326 322 321 318 315 311 306 301 301 296 302 271 264 301 305 280 263 269 214 214 153 287 159 169 253 296 7 313 33 320 313 19 118 164 185 212 237 263 9 356 110 182 121 112 121
327 331 332 331 329 325 327 328 325 321 318 317 317 318 316 312 312 305 302 295 305 283 284 305 286 304 284 309 327 266 330 122 307 320 354 339 300 328 259 291 40 359 349 223 304 177 151 65 100 110 121 134 122 130
334 334 333 334 335 332 328 330 324 320 319 320 321 323 321 319 322 320 302 309 341 320 317 359 6 336 327 317 272 281 265 211 181 221 351 311 264 156 269 290 15 334 30 201 37 43 107 107 100 143 135 138 156 203
336 336 338 340 339 338 336 332 327 327 325 325 323 326 324 324 326 324 326 5 342 318 293 339 338 341 329 312 300 256 257 264 273 300 234 232 234 30 290 180 181 193 123 231 254 314 105 116 139 180 11 337 324 223
339 339 342 343 344 344 342 338 335 334 335 336 332 332 332 331 333 330 9 334 321 334 312 323 319 4 350 350 352 305 278 285 256 221 211 243 74 162 253 48 249 8 80 301 349 35 37 90 166 296 319 42 154 223
339 342 343 346 347 348 348 346 348 349 350 350 352 357 6 27 45 42 72 38 9 358 313 310 320 355 359 351 355 3 356 309 252 297 308 59 56 357 284 272 41 49 45 53 99 91 108 192 291 348 100 92 158 157
338 341 344 345 348 351 352 350 355 2 6 9 5 2 35 54 44 55 67 329 349 355 4 304 10 3 2 22 18 16 19 13 339 354 35 360 39 353 309 281 60 40 355 351 341 325 118 81 236 319 145 139 144 146
335 338 341 340 345 350 350 354 355 4 10 19 27 42 66 21 21 32 23 352 328 19 6 4 296 42 9 4 2 12 345 348 18 20 46 14 320 8 298 47 24 332 281 308 322 337 300 283 227 182 160 150 148 153
335 337 339 338 340 348 349 353 357 7 12 21 50 80 82 9 38 9 28 40 32 26 24 3 347 336 352 340 350 334 351 14 5 354 51 354 100 245 304 331 331 327 290 284 303 321 301 230 229 204 185 176 178 168
341 338 338 339 342 350 351 358 12 15 49 50 17 1 37 25 25 18 26 23 25 42 46 47 343 308 345 339 87 334 11 23 349 333 323 248 294 67 9 345 334 323 270 270 265 290 286 252 242 232 215 199 195 183
346 344 343 341 343 349 9 11 20 37 2 359 10 25 43 29 22 33 25 34 347 46 21 338 347 310 355 350 334 25 317 345 320 329 41 308 292 41 358 358 346 333 305 293 267 264 288 293 267 251 235 218 208 203
354 357 1 12 16 30 26 32 35 35 38 27 5 9 13 21 15 71 340 345 39 289 345 347 325 304 316 343 280 6 335 331 338 302 23 276 136 17 11 12 12 2 333 309 280 250 261 275 261 251 231 229 222 219
2 1 1 17 45 33 25 57 60 25 353 345 339 339 1 354 30 66 346 317 353 1 6 336 314 330 316 3 278 335 289 348 282 333 254 205 129 360 5 9 16 15 12 355 326 270 267 271 261 257 241 231 225 226
2 3 7 15 8 354 356 10 9 356 353 338 348 343 89 332 191 202 226 247 305 299 320 316 293 349 322 318 339 330 301 337 285 266 218 188 309 347 354 360 357 355 353 351 338 302 282 276 268 256 243 233 233 234
332 329 337 351 352 337 332 321 323 339 327 289 315 275 277 280 260 257 272 287 289 298 320 295 258 294 350 5 44 355 357 271 219 283 359 29 331 338 343 339 335 330 328 327 323 316 303 278 269 260 249 240 237 234
328 328 329 341 338 333 331 328 323 322 265 257 235 331 237 265 220 265 292 288 297 306 352 14 340 10 290 131 31 229 88 244 358 23 349 314 304 322 330 328 325 315 316 318 314 309 304 293 274 263 249 240 237 237
331 341 332 332 335 328 314 312 299 266 249 233 228 225 241 271 263 260 230 261 274 20 305 70 51 229 17 358 282 200 205 238 325 310 307 297 299 309 319 316 314 302 307 311 310 304 296 288 274 255 246 242 237 236
326 332 330 328 325 326 320 282 256 256 256 241 229 199 231 245 251 259 261 250 192 229 223 216 160 89 209 209 274 252 302 311 315 313 307 304 306 310 311 311 307 307 309 308 304 297 292 285 278 266 245 235 233 233
313 317 318 312 320 326 289 275 256 259 254 257 254 260 256 251 260 252 264 256 210 216 248 221 184 212 235 199 252 301 308 309 309 309 308 317 320 307 302 305 308 311 313 309 307 302 296 290 282 263 239 229 232 234
313 315 316 306 301 287 271 260 254 260 266 262 251 255 253 237 260 264 237 202 190 208 228 218 219 223 208 238 284 299 304 308 311 313 312 314 303 307 314 314 312 311 312 313 310 307 310 301 281 245 223 219 228 232
309 317 310 303 299 230 259 256 246 247 263 257 269 257 258 278 254 198 202 211 200 221 240 238 234 245 261 282 300 305 308 309 309 305 306 309 316 312 316 323 322 325 327 326 321 310 306 303 289 232 211 221 229 232
308 306 292 285 246 244 250 238 246 267 258 265 272 246 254 243 212 217 213 198 231 229 220 225 233 240 270 294 305 308 311 313 314 311 308 305 313 326 334 340 339 334 333 329 317 315 313 307 272 227 222 227 234 237
306 291 262 232 233 242 250 231 232 234 210 227 264 287 240 223 229 227 249 231 244 236 230 237 248 265 284 303 310 313 317 321 325 326 325 325 328 329 330 335 331 327 327 327 310 311 314 288 247 238 226 229 236 240
295 256 242 231 215 255 240 230 226 238 263 256 167 281 256 206 218 220 251 243 232 225 217 221 232 260 297 318 321 322 324 327 332 339 332 331 338 345 335 336 342 345 334 327 321 314 311 274 242 242 239 242 246 251
265 234 215 243 222 200 217 224 236 162 249 201 161 276 245 182 255 238 234 247 222 211 213 221 247 298 316 325 322 321 320 326 329 336 335 332 335 343 349 344 343 352 2 355 343 331 325 292 259 257 257 253 255 258
229 220 192 211 194 177 201 192 204 212 190 210 226 163 154 105 41 248 232 214 208 209 211 226 278 308 315 317 320 322 322 322 326 335 335 334 333 344 7 6 1 359 341 334 333 328 312 300 285 273 267 262 262 259
231 253 219 216 200 194 242 218 187 160 189 209 190 156 119 194 242 244 222 208 202 202 212 261 300 311 313 313 311 311 314 318 329 336 339 343 337 335 352 354 351 346 340 329 321 317 314 305 288 279 278 268 262 261
223 232 188 192 202 205 179 196 186 216 223 180 146 187 191 200 235 200 208 205 208 222 263 296 306 304 307 312 311 314 313 316 332 336 332 333 339 328 331 340 342 341 335 328 317 313 308 303 300 279 273 279 275 266
224 211 188 184 198 216 221 205 223 218 203 182 174 212 223 220 217 209 206 207 226 261 287 300 302 304 309 314 314 315 325 340 355 358 360 1 351 337 329 331 333 334 330 329 324 320 317 311 308 307 295 289 286 275
225 196 198 188 188 222 225 207 229 222 206 208 221 233 236 241 238 234 236 246 262 279 291 297 306 307 303 310 333 357 10 4 3 8 12 15 8 354 337 328 328 332 334 333 330 320 309 324 327 321 316 296 286 277
209 192 222 215 240 239 237 238 241 246 244 238 235 241 239 257 266 258 252 256 263 265 281 299 308 298 137 103 48 30 16 7 6 6 12 13 8 6 1 354 347 341 338 333 328 321 317 325 330 332 329 322 314 295
200 202 206 232 263 259 246 225 230 224 240 227 238 228 228 214 233 251 240 203 206 269 289 305 204 137 112 89 56 42 26 16 10 9 13 10 355 349 355 359 358 354 349 347 351 347 337 335 343 344 339 329 317 314
209 215 228 267 249 243 218 200 228 252 240 234 232 211 203 204 233 227 204 200 224 252 304 135 124 119 114 90 60 28 11 1 358 3 6 16 326 327 340 357 359 358 357 359 360 357 356 353 350 343 338 335 333 331